Regional Weather Roundup
Issued by NWS Columbia, SC

Home | Current Version | Previous Version | Text Only | Print | Product List | Glossary On
Versions: 1 2 3 4 5 6 7 8 9 10 11 12 13 14 15 16 17 18 19 20 21 22 23 24 25 26 27 28
000
ASUS42 KCAE 231710
RWRCAE
REGIONAL WEATHER ROUNDUP
NATIONAL WEATHER SERVICE COLUMBIA SC
100 PM EDT SUN JUL 23 2017

NOTE: "FAIR" INDICATES FEW OR NO CLOUDS BELOW 12,000 FEET WITH NO
SIGNIFICANT WEATHER AND/OR OBSTRUCTIONS TO VISIBILITY.

NOT ALL STATIONS ARE QUALITY CONTROLLED BY THE NATIONAL
WEATHER SERVICE. USE DATA WITH CAUTION...ESPECIALLY
DEWPOINT OBSERVATIONS.

SCZ001>056-GAZ040-063>065-077-231800-
...UPSTATE SOUTH CAROLINA...

CITY           SKY/WX    TMP DP  RH WIND       PRES   REMARKS
ANDERSON       SUNNY     92  72  51 W9        29.92F HX  99
LIBERTY        SUNNY     91  74  56 CALM      29.93F HX 100
SPARTANBURG    MOSUNNY   90  70  51 SW3       29.91F HX  95
CLEMSON        MOSUNNY   92  73  53 CALM      29.93F HX 100
GREENVILLE     MOSUNNY   92  73  53 VRB6      29.94F HX 100
GREENWOOD      MOSUNNY   90  73  57 MISG      29.93F HX  98
GREER          MOSUNNY   90  72  55 SW9       29.92F HX  97
ROCK HILL      MOSUNNY   93  73  52 SW7       29.91F HX 102
CHESTER        MOSUNNY   90  70  51 CALM      29.92F HX  95
LAURENS        MOSUNNY   91  73  55 W3        29.92F HAZE    HX 100


...CENTRAL SOUTH CAROLINA...

CITY           SKY/WX    TMP DP  RH WIND       PRES   REMARKS
COLUMBIA APT   MOSUNNY   94  75  54 SW10      29.89F HX 105
COLUMBIA OWENS SUNNY     94  73  50 SW8       29.91F HX 103
MCENTIRE ANGB  MOSUNNY   93  76  57 SW13      29.91F HX 104
ORANGEBURG     PTSUNNY   91  75  59 SW13      29.92F HX 101
SUMTER SHAW    SUNNY     93  74  53 SW12G21   29.89F HX 103
NEWBERRY       MOSUNNY   91  75  59 S8        29.94F HX 102
AIKEN          FAIR      91  73  55 S8        29.96F HX 100
BARNWELL       FAIR      93  77  59 W6G12     29.93F HX 107
MANNING        PTSUNNY   90  70  51 W10       29.92F HX  95
CAMDEN         FAIR      93  73  52 W10       29.91F HX 102
LANCASTER      SUNNY     91  73  55 SW8       29.91F HX 100
WINNSBORO      SUNNY     91  73  55 SW6       29.92F HX 100


...EASTERN AND COASTAL SOUTH CAROLINA...

CITY           SKY/WX    TMP DP  RH WIND       PRES   REMARKS
MYRTLE BEACH   MOSUNNY   90  77  66 S14       29.92F HX 102
N MYRTLE BCH   SUNNY     87  78  74 SW17      29.91F HX 100
CONWAY         FAIR      90  77  66 SW7       29.91F HAZE    HX 102
MARION         FAIR      91  75  59 SW10      29.90F HAZE    HX 102
HARTSVILLE     FAIR      91  77  62 SW5       29.90F HX 105
FLORENCE       MOSUNNY   92  77  61 W10G18    29.90F HX 105
DARLINGTON     SUNNY     92  77  61 SW8       29.90F HX 105
CHARLESTON APT MOSUNNY   92  76  59 SW7       29.93F HX 104
MOUNT PLEASANT FAIR      91  77  62 SW7       29.94S HX 105
WALTERBORO     PTSUNNY   90  75  62 SW8       29.94F HX 100
BEAUFORT       MOSUNNY   91  78  65 W5        29.95F HX 106


...EASTERN GEORGIA...

CITY           SKY/WX    TMP DP  RH WIND       PRES   REMARKS
AUGUSTA BUSH F MOSUNNY   93  77  59 SW12      29.91F HX 107
AUGUSTA DANIEL MOSUNNY   93  71  48 W8        29.93F HX 100
THOMSON        MOSUNNY   92  74  55 N12       29.98F HX 101
WASHINGTON     FAIR     N/A N/A N/A W7        29.94F
CLAXTON        FAIR      90  77  65 SW5       29.96F HX 102
SYLVANIA       MOSUNNY   91  79  68 W5        29.95F HX 108
STATESBORO     MOSUNNY   90  76  62 SW5       29.95F HX 102
SAVANNAH       MOSUNNY   91  75  59 SW8       29.96F HX 101


...SOUTHERN NORTH CAROLINA...

CITY           SKY/WX    TMP DP  RH WIND       PRES   REMARKS
CHARLOTTE      MOSUNNY   93  74  53 W5        29.91F HX 103
MONROE         SUNNY     91  75  59 SW8       29.90F HX 101
ROCKINGHAM     SUNNY     91  77  63 SW6       29.90F HX 105
RUTHERFORDTON  SUNNY     90  73  57 S8        29.93F HX  98
ASHEVILLE      MOSUNNY   87  72  60 SW7       30.00F

$$




USA.gov is the U.S. government's official web portal to all federal, state and local government web resources and services.